[Iaude] MPEC F114: 2024 FM3 [a=1.18,e=0.30,i=3.5,H=22.5]
    mpec at cfa.harvard.edu 
    mpec at cfa.harvard.edu
       
    Sun Mar 31 08:55:30 EDT 2024
    
    
  
M.P.E.C. 2024-F114                               Issued 2024 March 31, 12:54 UT
     The Minor Planet Electronic Circulars contain information on unusual
         minor planets, routine data on comets and natural satellites,
         and occasional editorial announcements.  They are published
    on behalf of Division F of the International Astronomical Union by the
          Minor Planet Center, Smithsonian Astrophysical Observatory,
                          Cambridge, MA 02138, U.S.A.
			  
             Prepared using the Tamkin Foundation Computer Network
                              MPC at CFA.HARVARD.EDU
            URL https://www.minorplanetcenter.net/    ISSN 1523-6714
                                    2024 FM3                                    
Observations:
     K24F03M* C2024 03 29.28128408 57 18.766-04 53 13.33         19.94wXEF114F51
     K24F03M  C2024 03 29.29340208 57 23.910-04 53 21.11         19.92wXEF114F51
     K24F03M  C2024 03 29.30553908 57 29.045-04 53 28.69         19.91wXEF114F51
     K24F03M  C2024 03 29.31769108 57 34.185-04 53 36.27         19.96wXEF114F51
     K24F03M  C2024 03 29.38501308 58 02.784-04 54 17.73         19.37GVEF114F51
     K24F03M KB2024 03 29.49527 08 58 54.41 -04 55 42.2          19.4 GXEF114Q06
     K24F03M KB2024 03 29.50687 08 58 59.20 -04 55 49.9          19.9 GXEF114Q06
     K24F03M KB2024 03 29.51847 08 59 03.98 -04 55 57.8          19.9 GXEF114Q06
     K24F03M KB2024 03 29.61066 08 59 45.04 -04 56 46.3          20.0 GVEF114O46
     K24F03M KB2024 03 29.61470 08 59 46.74 -04 56 49.6          20.6 GVEF114O46
     K24F03M KB2024 03 29.62247 08 59 49.96 -04 56 54.5          19.5 GVEF114O46
     K24F03M KC2024 03 29.84556 09 01 28.09 -04 58 07.5                VEF114M21
     K24F03M KC2024 03 29.86834 09 01 37.43 -04 58 21.0          19.7 GVEF114M21
     K24F03M KC2024 03 29.87598709 01 41.981-04 59 45.46         19.0 GVEF114J95
     K24F03M KC2024 03 29.88430309 01 45.398-04 59 50.10         19.6 GVEF114J95
     K24F03M KC2024 03 29.89437109 01 49.613-04 59 56.62         19.3 GVEF114J95
     K24F03M |C2024 03 30.06051609 03 01.860-05 00 06.40         19.5 GVEF114807
     K24F03M |C2024 03 30.06271009 03 02.760-05 00 07.70         19.7 GVEF114807
     K24F03M |C2024 03 30.06491009 03 03.660-05 00 09.00         19.7 GVEF114807
     K24F03M mC2024 03 30.11718509 03 27.547-05 01 50.16         20.55GVEF114I52
     K24F03M mC2024 03 30.11864409 03 28.152-05 01 50.95         20.12GVEF114I52
     K24F03M mC2024 03 30.12010209 03 28.696-05 01 51.92         19.75GVEF114I52
     K24F03M mC2024 03 30.12179209 03 29.405-05 01 53.29         19.94GVEF114I52
     K24F03M  C2024 03 30.24791609 04 20.006-05 03 06.31         19.5 GVEF114H01
     K24F03M  C2024 03 30.25308409 04 22.106-05 03 09.04         19.6 GVEF114H01
     K24F03M KC2024 03 30.38890 09 05 22.86 -05 03 10.8          19.9 VqEF114E23
     K24F03M KC2024 03 30.40742 09 05 30.20 -05 03 21.2          19.7 VqEF114E23
     K24F03M KC2024 03 30.42594 09 05 37.56 -05 03 31.9          19.6 VqEF114E23
     K24F03M KC2024 03 31.06294609 10 00.29 -05 10 36.5                VEF114H21
     K24F03M KC2024 03 31.06574109 10 01.37 -05 10 38.1          20.2 GVEF114H21
     K24F03M KC2024 03 31.06853609 10 02.44 -05 10 39.3                VEF114H21
     K24F03M KC2024 03 31.07133109 10 03.51 -05 10 40.6          20.3 GVEF114H21
     K24F03M KC2024 03 31.07422109 10 04.62 -05 10 42.4          20.2 GVEF114H21
     K24F03M  C2024 03 31.24964409 11 15.390-05 11 54.77         19.99wXEF114F51
     K24F03M  C2024 03 31.26214909 11 20.058-05 12 01.27         19.96wXEF114F51
     K24F03M  C2024 03 31.27463509 11 24.710-05 12 07.71         19.89wXEF114F51
     K24F03M  C2024 03 31.28711309 11 29.356-05 12 14.11         20.02wXEF114F51
Observer details:
807 Cerro Tololo Observatory, La Serena.  Observers T. Linder, R. Holmes.
    0.61-m f/6.8 Ritchey-Chretien + CCD.
E23 Arcadia.  Observer A. Hidas.  0.35-m f/1.9 reflector + CCD.
F51 Pan-STARRS 1, Haleakala.  Observers J. Herman, T. Lowe, P. Minguez, A.
    Schultz, I. Smith.  Measurers K. Chambers, T. de Boer, J. Fairlamb, H.
    Gao, M. Huber, C.-C. Lin, E. Magnier, Y. Ramanjooloo, R. Wainscoat, R.
    Weryk.  1.8-m Ritchey-Chretien + CCD.
H01 Magdalena Ridge Observatory, Socorro.  Observers W. H. Ryan, E. V. Ryan.
    Measurer W. H. Ryan.  2.4-m f/8.9 Ritchey-Chretien + CCD.
H21 Astronomical Research Observatory, Westfield.  Observer R. Holmes.
    Measurers T. Linder, R. Holmes, L. Horn.  0.81-m f/4.0 astrograph + CCD.
I52 Steward Observatory, Mt. Lemmon Station.  Observers T. Beuden, H.
    Groeller.  Measurers T. Beuden, V. F. Carvajal, D. Fay, J. B. Fazekas, D.
    C. Fuls, A. R. Gibbs, A. D. Grauer, H. Groeller, J. K. Hogan, R. A.
    Kowalski, S. M. Larson, G. J. Leonard, D. Rankin, R. L. Seaman, F. C.
    Shelly, K. W. Wierzchos.  1.0-m prime focus + CCD.
J95 Great Shefford.  Observer P. Birtwhistle.  0.41-m f/6.3 Schmidt-Cassegrain
    + CCD.
M21 Schiaparelli Southern Observatory, Hakos.  Observers A. Aletti, F.
    Bellini, L. Buzzi, G. Galli.  Measurer L. Buzzi.  0.36-m f/8.4 reflector +
    CCD.
O46 Daocheng Glacier Observatory.  Observer Z. Wang.  0.25-m f/8 reflector +
    CMO.
Q06 Tarui Observatory, Tarui.  Observer H. Watanabe.  0.35-m f/1.9 Schmidt-
    Cassegrain + CMO.
Orbital elements:
2024 FM3                                                 Earth MOID = 0.0266 AU
Epoch 2024 Mar. 31.0 TT = JDT 2460400.5                 Veres                   
M  57.43244              (2000.0)            P               Q                  
n   0.76656061     Peri.  132.59593     -0.06384594     -0.99723780             
a   1.1824199      Node   321.01623     +0.89703721     -0.04068205             
e   0.3040299      Incl.    3.45874     +0.43731903     -0.06214290             
P   1.29           H   22.55          G   0.15           U   8                  
Residuals in seconds of arc
240329 F51  0.2-  0.2+    240329 J95  0.3-  0.0     240330 E23  0.5-  0.1+
240329 F51  0.0   0.1+    240329 J95  1.0-  0.2+    240330 E23  0.1-  0.1-
240329 F51  0.1-  0.1+    240329 J95  0.7-  0.4-    240331 H21  0.1+  0.6-
240329 F51  0.2-  0.1+    240330 807  0.2-  0.0     240331 H21  0.3+  0.7-
240329 F51  0.2+  0.0     240330 807  0.0   0.0     240331 H21  0.3+  0.4-
240329 Q06 (3.6+  0.1+)   240330 807  0.1+  0.1-    240331 H21  0.3+  0.2-
240329 Q06  2.1+  0.5-    240330 I52  0.3+  0.3+    240331 H21  0.4+  0.5-
240329 Q06  0.4+  1.3-    240330 I52  0.5+  0.4+    240331 F51  0.1-  0.0
240329 O46  0.3+  0.5+    240330 I52  0.2-  0.2+    240331 F51  0.1-  0.0
240329 O46  0.5+  0.4-    240330 I52  0.2+  0.1-    240331 F51  0.0   0.0
240329 O46  0.2+  0.6-    240330 H01  0.0   0.0     240331 F51  0.1+  0.0
240329 M21  0.0   0.2-    240330 H01  0.1+  0.1+
240329 M21  0.1+  0.4-    240330 E23  0.2-  0.1-
Ephemeris:
2024 FM3                 a,e,i = 1.18, 0.30, 3                   q = 0.8229
Date    TT    R. A. (2000) Decl.     Delta      r    Elong.  Phase     V
2024 03 01    02 28 22.5 +06 22 56   0.1028  0.9382    56.7   118.1    22.2
...
2024 03 16    06 17 43.7 -00 02 35   0.07795 1.0092    98.5    77.1    19.7
...
2024 03 24    08 09 28.8 -03 37 43   0.09973 1.0492   119.2    56.1    19.7
...
2024 03 30    09 02 35.7 -05 00 00   0.1261  1.0794   127.1    47.5    20.0
2024 03 31    09 09 33.7 -05 09 16   0.1310  1.0845   128.0    46.6    20.1
2024 04 01    09 16 06.3 -05 17 36   0.1361  1.0895   128.7    45.7    20.1
...
2024 04 07    09 48 21.2 -05 53 25   0.1686  1.1197   131.4    42.1    20.6
...
2024 04 15    10 19 16.3 -06 21 34   0.2169  1.1593   131.9    40.1    21.1
...
2024 04 30    11 00 10.4 -07 03 52   0.3196  1.2305   128.1    40.1    22.1
M. P. C. Staff               (C) Copyright 2024 MPC           M.P.E.C. 2024-F114
    
    
More information about the Iaude
mailing list